{"data":{"norad_id":61619,"intl_designator":"2024-190C","name":"YAOGAN-43 03C","alt_names":[],"object_type":"PAYLOAD","status":"ACTIVE","operator":null,"country":"PRC","launch_date":"2024-10-23","launch_site_code":"XICLF","launch_vehicle":null,"mission":null,"orbit_class":"UNKNOWN","rcs_meters":null,"size_class":null,"mass_kg":null,"dimensions":null,"purposes":[],"wikipedia_slug":null,"has_3d_model":false,"image_url":null,"decayed_at":null,"tle_current":{"epoch":"2026-09-22T12:43:01.455744Z","epoch_age_seconds":121998,"freshness":"FRESH","line1":"1 61619U 24190C   26265.52987796  .00001381  00000+0  58748-4 0  9991","line2":"2 61619  34.9963 305.8613 0005735 148.9944 211.1110 15.23042607106671","mean_motion":15.23042607,"eccentricity":0.0005735,"inclination_deg":34.9963,"raan_deg":305.8613,"arg_perigee_deg":148.9944,"mean_anomaly_deg":211.111,"bstar":5.8748e-5,"rev_number":10667,"period_min":94.547584774166,"perigee_km":492.72670092783,"apogee_km":500.61210387138,"semimajor_km":6874.8064023996,"source":"CELESTRAK","updated_at":"2026-09-23T09:00:20.957002Z"}}}